Tracking 19831 objects as of 23-Aug-2019
HD Live streaming from Space Station
objects crossing your sky now

FENGYUN 1C DEB

Track FENGYUN 1C DEB now!
10-day predictions


NORAD ID: 30472
Int'l Code: 1999-025AGK
Perigee: 769.3 km
Apogee: 854.0 km
Inclination: 98.8 °
Period: 101.0 minutes
Semi major axis: 7182 km
RCS: 0.025 m2 (small)
Launch date: May 10, 1999
Source: People's Republic of China (PRC)
Launch site: Taiyaun Space Center, China (TSC)

Note: This is SATELLITE DEBRIS
aabbcc
Your satellite tracking list
Your tracking list is empty




NASA's NSSDC Master Catalog

Two Line Element Set (TLE):
1 30472U 99025AGK 19235.12478226  .00000328  00000-0  15302-3 0  9990
2 30472  98.7838 292.4703 0058979  22.6092   6.7810 14.26184884650871
Source of the keplerian elements: AFSPC